Time,TemperatureF,DewpointF,PressureIn,WindDirection,WindDirectionDegrees,WindSpeedMPH,WindSpeedGustMPH,Humidity,HourlyPrecipIn,Conditions,Clouds,dailyrainin,SoftwareType,DateUTC
2013-07-13 00:05:00,65.3,60.3,30.02,WNW,300,0.0,0.0,84,0.00,,,0.00,Wunderground v.1.15,2013-07-13 04:05:00,
2013-07-13 00:09:00,65.3,60.3,30.02,WNW,300,0.0,0.0,84,0.00,,,0.00,Wunderground v.1.15,2013-07-13 04:09:00,
2013-07-13 00:15:00,65.2,60.2,30.02,WNW,300,0.0,0.0,84,0.00,,,0.00,Wunderground v.1.15,2013-07-13 04:15:00,
2013-07-13 00:19:00,65.2,60.2,30.02,WNW,300,0.0,0.0,84,0.00,,,0.00,Wunderground v.1.15,2013-07-13 04:19:00,
2013-07-13 00:24:00,65.3,60.3,30.02,WNW,300,0.0,0.0,84,0.00,,,0.00,Wunderground v.1.15,2013-07-13 04:24:00,
2013-07-13 00:30:00,65.3,60.3,30.02,WNW,300,0.0,0.0,84,0.00,,,0.00,Wunderground v.1.15,2013-07-13 04:30:00,
2013-07-13 00:40:00,65.2,60.2,30.02,WNW,300,0.0,0.0,84,0.00,,,0.00,Wunderground v.1.15,2013-07-13 04:40:00,
2013-07-13 00:45:00,65.3,60.7,30.02,WNW,300,0.0,0.0,85,0.00,,,0.00,Wunderground v.1.15,2013-07-13 04:45:00,
2013-07-13 00:55:00,65.3,61.0,30.02,WNW,300,0.0,0.0,86,0.00,,,0.00,Wunderground v.1.15,2013-07-13 04:55:00,
2013-07-13 01:00:00,65.3,61.0,30.02,WNW,300,0.0,0.0,86,0.00,,,0.00,Wunderground v.1.15,2013-07-13 05:00:00,
2013-07-13 01:10:00,65.2,61.2,30.02,WNW,300,0.0,0.0,87,0.00,,,0.00,Wunderground v.1.15,2013-07-13 05:10:00,
2013-07-13 01:15:00,65.0,61.0,30.02,WNW,300,0.0,0.0,87,0.00,,,0.00,Wunderground v.1.15,2013-07-13 05:15:00,
2013-07-13 01:25:00,64.7,61.1,30.02,WNW,300,0.0,0.0,88,0.00,,,0.00,Wunderground v.1.15,2013-07-13 05:25:00,
2013-07-13 01:30:00,64.5,60.9,30.02,WNW,300,0.0,0.0,88,0.00,,,0.00,Wunderground v.1.15,2013-07-13 05:30:00,
2013-07-13 01:40:00,64.2,60.6,30.02,WNW,300,0.0,0.0,88,0.00,,,0.00,Wunderground v.1.15,2013-07-13 05:40:00,
2013-07-13 01:45:00,64.0,60.7,30.02,WNW,300,0.0,0.0,89,0.00,,,0.00,Wunderground v.1.15,2013-07-13 05:45:00,
2013-07-13 01:54:00,63.9,60.9,30.02,WNW,300,0.0,0.0,90,0.00,,,0.00,Wunderground v.1.15,2013-07-13 05:54:00,
2013-07-13 02:00:00,63.9,60.9,30.02,WNW,300,0.0,0.0,90,0.00,,,0.00,Wunderground v.1.15,2013-07-13 06:00:00,
2013-07-13 02:10:00,63.7,60.7,30.02,WNW,300,0.0,0.0,90,0.00,,,0.00,Wunderground v.1.15,2013-07-13 06:10:00,
2013-07-13 02:15:00,63.7,60.7,30.02,WNW,300,0.0,0.0,90,0.00,,,0.00,Wunderground v.1.15,2013-07-13 06:15:00,
2013-07-13 02:24:00,63.5,60.5,30.02,WNW,300,0.0,0.0,90,0.00,,,0.00,Wunderground v.1.15,2013-07-13 06:24:00,
2013-07-13 02:30:00,63.4,60.7,30.01,WNW,300,0.0,0.0,91,0.00,,,0.00,Wunderground v.1.15,2013-07-13 06:30:00,
2013-07-13 02:39:00,63.2,60.5,30.01,WNW,300,0.0,0.0,91,0.00,,,0.00,Wunderground v.1.15,2013-07-13 06:39:00,
2013-07-13 02:45:00,63.1,60.4,30.00,WNW,300,0.0,0.0,91,0.00,,,0.00,Wunderground v.1.15,2013-07-13 06:45:00,
2013-07-13 02:54:00,62.7,60.0,30.00,WNW,300,0.0,0.0,91,0.00,,,0.00,Wunderground v.1.15,2013-07-13 06:54:00,
2013-07-13 03:00:00,62.6,59.9,30.00,WNW,300,0.0,0.0,91,0.00,,,0.00,Wunderground v.1.15,2013-07-13 07:00:00,
2013-07-13 03:09:00,62.3,59.6,30.00,WNW,300,0.0,0.0,91,0.00,,,0.00,Wunderground v.1.15,2013-07-13 07:09:00,
2013-07-13 03:15:00,62.3,59.6,30.01,WNW,300,0.0,0.0,91,0.00,,,0.00,Wunderground v.1.15,2013-07-13 07:15:00,
2013-07-13 03:24:00,62.0,59.6,30.01,WNW,300,0.0,0.0,92,0.00,,,0.00,Wunderground v.1.15,2013-07-13 07:24:00,
2013-07-13 03:30:00,62.0,59.6,30.01,WNW,300,0.0,0.0,92,0.00,,,0.00,Wunderground v.1.15,2013-07-13 07:30:00,
2013-07-13 03:40:00,61.6,59.3,30.01,WNW,300,0.0,0.0,92,0.00,,,0.00,Wunderground v.1.15,2013-07-13 07:40:00,
2013-07-13 03:45:00,61.6,59.3,30.00,WNW,300,0.0,0.0,92,0.00,,,0.00,Wunderground v.1.15,2013-07-13 07:45:00,
2013-07-13 03:54:00,61.5,59.2,30.00,WNW,300,0.0,0.0,92,0.00,,,0.00,Wunderground v.1.15,2013-07-13 07:54:00,
2013-07-13 04:00:00,61.5,59.2,30.01,WNW,300,0.0,0.0,92,0.00,,,0.00,Wunderground v.1.15,2013-07-13 08:00:00,
2013-07-13 04:10:00,61.5,59.5,30.01,WNW,300,0.0,0.0,93,0.00,,,0.00,Wunderground v.1.15,2013-07-13 08:10:00,
2013-07-13 04:15:00,61.8,59.8,30.01,WNW,300,0.0,0.0,93,0.00,,,0.00,Wunderground v.1.15,2013-07-13 08:15:00,
2013-07-13 04:25:00,62.0,60.0,30.01,WNW,300,0.0,0.0,93,0.00,,,0.00,Wunderground v.1.15,2013-07-13 08:25:00,
2013-07-13 04:30:00,62.0,60.0,30.01,WNW,300,0.0,0.0,93,0.00,,,0.00,Wunderground v.1.15,2013-07-13 08:30:00,
2013-07-13 04:39:00,61.6,59.6,30.01,WNW,300,0.0,0.0,93,0.00,,,0.00,Wunderground v.1.15,2013-07-13 08:39:00,
2013-07-13 04:45:00,61.6,59.6,30.01,WNW,300,0.0,0.0,93,0.00,,,0.00,Wunderground v.1.15,2013-07-13 08:45:00,
2013-07-13 04:55:00,61.5,59.8,30.01,WNW,300,0.0,0.0,94,0.00,,,0.00,Wunderground v.1.15,2013-07-13 08:55:00,
2013-07-13 05:00:00,61.3,59.6,30.02,WNW,300,0.0,0.0,94,0.00,,,0.00,Wunderground v.1.15,2013-07-13 09:00:00,
2013-07-13 05:09:00,61.2,59.5,30.02,WNW,300,0.0,0.0,94,0.00,,,0.00,Wunderground v.1.15,2013-07-13 09:09:00,
2013-07-13 05:15:00,61.0,59.3,30.02,WNW,300,0.0,0.0,94,0.00,,,0.00,Wunderground v.1.15,2013-07-13 09:15:00,
2013-07-13 05:25:00,60.9,59.2,30.02,WNW,300,0.0,0.0,94,0.00,,,0.00,Wunderground v.1.15,2013-07-13 09:25:00,
2013-07-13 05:30:00,60.9,59.2,30.02,WNW,300,0.0,0.0,94,0.00,,,0.00,Wunderground v.1.15,2013-07-13 09:30:00,
2013-07-13 05:40:00,60.7,59.0,30.02,WNW,300,0.0,0.0,94,0.00,,,0.00,Wunderground v.1.15,2013-07-13 09:40:00,
2013-07-13 05:45:00,60.5,58.8,30.02,WNW,300,0.0,0.0,94,0.00,,,0.00,Wunderground v.1.15,2013-07-13 09:45:00,
2013-07-13 05:55:00,60.5,58.8,30.02,WNW,300,0.0,0.0,94,0.00,,,0.00,Wunderground v.1.15,2013-07-13 09:55:00,
2013-07-13 06:00:00,60.5,58.8,30.02,WNW,300,0.0,0.0,94,0.00,,,0.00,Wunderground v.1.15,2013-07-13 10:00:00,
2013-07-13 06:09:00,60.4,58.7,30.02,WNW,300,0.0,0.0,94,0.00,,,0.00,Wunderground v.1.15,2013-07-13 10:09:00,
2013-07-13 06:15:00,60.4,58.7,30.03,WNW,300,0.0,0.0,94,0.00,,,0.00,Wunderground v.1.15,2013-07-13 10:15:00,
2013-07-13 06:25:00,60.4,59.0,30.03,WNW,300,0.0,0.0,95,0.00,,,0.00,Wunderground v.1.15,2013-07-13 10:25:00,
2013-07-13 06:30:00,60.4,59.0,30.03,WNW,300,0.0,0.0,95,0.00,,,0.00,Wunderground v.1.15,2013-07-13 10:30:00,
2013-07-13 06:40:00,60.2,58.8,30.03,WNW,300,0.0,0.0,95,0.00,,,0.00,Wunderground v.1.15,2013-07-13 10:40:00,
2013-07-13 06:45:00,60.2,58.8,30.03,WNW,300,0.0,0.0,95,0.00,,,0.00,Wunderground v.1.15,2013-07-13 10:45:00,
2013-07-13 06:54:00,60.2,58.8,30.03,WNW,300,0.0,0.0,95,0.00,,,0.00,Wunderground v.1.15,2013-07-13 10:54:00,
2013-07-13 07:00:00,60.4,59.0,30.03,WNW,300,0.0,0.0,95,0.00,,,0.00,Wunderground v.1.15,2013-07-13 11:00:00,
2013-07-13 07:05:00,60.5,59.1,30.03,WNW,300,0.0,0.0,95,0.00,,,0.00,Wunderground v.1.15,2013-07-13 11:05:00,
2013-07-13 07:15:00,61.0,59.6,30.04,WNW,300,0.0,0.0,95,0.00,,,0.00,Wunderground v.1.15,2013-07-13 11:15:00,
2013-07-13 07:24:00,61.3,60.2,30.04,WNW,300,0.0,0.0,96,0.00,,,0.00,Wunderground v.1.15,2013-07-13 11:24:00,
2013-07-13 07:30:00,61.3,60.2,30.05,WNW,300,0.0,0.0,96,0.00,,,0.00,Wunderground v.1.15,2013-07-13 11:30:00,
2013-07-13 07:40:00,61.5,60.3,30.05,WNW,300,0.0,0.0,96,0.00,,,0.00,Wunderground v.1.15,2013-07-13 11:40:00,
2013-07-13 07:45:00,61.6,60.4,30.05,WNW,300,0.0,0.0,96,0.00,,,0.00,Wunderground v.1.15,2013-07-13 11:45:00,
2013-07-13 07:54:00,62.1,60.9,30.05,WNW,300,0.0,0.0,96,0.00,,,0.00,Wunderground v.1.15,2013-07-13 11:54:00,
2013-07-13 08:00:00,62.6,61.4,30.06,WNW,300,0.0,0.0,96,0.00,,,0.00,Wunderground v.1.15,2013-07-13 12:00:00,
2013-07-13 08:10:00,63.2,62.0,30.06,WNW,300,0.0,0.0,96,0.00,,,0.00,Wunderground v.1.15,2013-07-13 12:10:00,
2013-07-13 08:15:00,63.7,62.5,30.06,WNW,300,0.0,0.0,96,0.00,,,0.00,Wunderground v.1.15,2013-07-13 12:15:00,
2013-07-13 08:24:00,64.2,63.0,30.06,WNW,300,0.0,0.0,96,0.00,,,0.00,Wunderground v.1.15,2013-07-13 12:24:00,
2013-07-13 08:30:00,64.5,63.3,30.07,SW,223,0.0,0.0,96,0.00,,,0.00,Wunderground v.1.15,2013-07-13 12:30:00,
2013-07-13 08:39:00,65.0,63.5,30.07,SW,227,0.0,0.0,95,0.00,,,0.00,Wunderground v.1.15,2013-07-13 12:39:00,
2013-07-13 08:45:00,65.3,63.8,30.07,SW,227,0.0,0.0,95,0.00,,,0.00,Wunderground v.1.15,2013-07-13 12:45:00,
2013-07-13 08:54:00,66.1,64.3,30.07,West,261,0.0,0.0,94,0.00,,,0.00,Wunderground v.1.15,2013-07-13 12:54:00,
2013-07-13 09:00:00,66.6,64.5,30.07,West,261,0.0,0.0,93,0.00,,,0.00,Wunderground v.1.15,2013-07-13 13:00:00,
2013-07-13 09:10:00,67.4,64.7,30.07,West,261,0.0,0.0,91,0.00,,,0.00,Wunderground v.1.15,2013-07-13 13:10:00,
2013-07-13 09:15:00,67.8,64.4,30.07,West,261,0.0,0.0,89,0.00,,,0.00,Wunderground v.1.15,2013-07-13 13:15:00,
2013-07-13 09:24:00,68.4,64.7,30.07,SW,236,0.0,0.0,88,0.00,,,0.00,Wunderground v.1.15,2013-07-13 13:24:00,
2013-07-13 09:30:00,68.8,64.4,30.06,SW,219,1.0,1.0,86,0.00,,,0.00,Wunderground v.1.15,2013-07-13 13:30:00,
2013-07-13 09:40:00,69.4,64.7,30.06,SW,219,0.0,0.0,85,0.00,,,0.00,Wunderground v.1.15,2013-07-13 13:40:00,
2013-07-13 09:45:00,69.6,64.9,30.06,SW,215,0.0,0.0,85,0.00,,,0.00,Wunderground v.1.15,2013-07-13 13:45:00,
2013-07-13 09:55:00,70.3,65.6,30.06,WNW,285,0.0,1.0,85,0.00,,,0.00,Wunderground v.1.15,2013-07-13 13:55:00,
2013-07-13 10:00:00,70.3,64.9,30.06,WNW,303,0.0,0.0,83,0.00,,,0.00,Wunderground v.1.15,2013-07-13 14:00:00,
2013-07-13 10:10:00,70.9,65.5,30.06,SE,131,0.0,0.0,83,0.00,,,0.00,Wunderground v.1.15,2013-07-13 14:10:00,
2013-07-13 10:15:00,71.3,65.9,30.06,SE,131,0.0,0.0,83,0.00,,,0.00,Wunderground v.1.15,2013-07-13 14:15:00,
2013-07-13 10:25:00,72.0,65.8,30.06,West,279,0.0,2.0,81,0.00,,,0.00,Wunderground v.1.15,2013-07-13 14:25:00,
2013-07-13 10:30:00,72.5,66.0,30.06,South,190,1.0,1.0,80,0.00,,,0.00,Wunderground v.1.15,2013-07-13 14:30:00,
2013-07-13 10:39:00,73.0,65.7,30.06,SW,219,1.0,6.0,78,0.00,,,0.00,Wunderground v.1.15,2013-07-13 14:39:00,
2013-07-13 10:45:00,72.8,65.5,30.06,NNE,28,2.0,6.0,78,0.00,,,0.00,Wunderground v.1.15,2013-07-13 14:45:00,
2013-07-13 10:54:00,73.2,66.3,30.06,South,190,0.0,1.0,79,0.00,,,0.00,Wunderground v.1.15,2013-07-13 14:54:00,
2013-07-13 11:00:00,73.5,65.5,30.06,ESE,119,0.0,0.0,76,0.00,,,0.00,Wunderground v.1.15,2013-07-13 15:00:00,
2013-07-13 11:05:00,73.7,64.5,30.06,West,274,0.0,3.0,73,0.00,,,0.00,Wunderground v.1.15,2013-07-13 15:05:00,
2013-07-13 11:15:00,74.7,66.6,30.06,West,275,0.0,0.0,76,0.00,,,0.00,Wunderground v.1.15,2013-07-13 15:15:00,
2013-07-13 11:24:00,75.8,65.7,30.06,North,5,0.0,0.0,71,0.00,,,0.00,Wunderground v.1.15,2013-07-13 15:24:00,
2013-07-13 11:30:00,76.3,67.0,30.06,East,97,1.0,1.0,73,0.00,,,0.00,Wunderground v.1.15,2013-07-13 15:30:00,
2013-07-13 11:39:00,75.6,67.1,30.06,South,188,2.0,2.0,75,0.00,,,0.00,Wunderground v.1.15,2013-07-13 15:39:00,
2013-07-13 11:45:00,76.3,67.8,30.06,SW,230,1.0,4.0,75,0.00,,,0.00,Wunderground v.1.15,2013-07-13 15:45:00,
2013-07-13 11:55:00,76.3,65.4,30.06,SSW,196,3.0,5.0,69,0.00,,,0.00,Wunderground v.1.15,2013-07-13 15:55:00,
2013-07-13 12:00:00,76.3,65.0,30.06,SSW,211,3.0,3.0,68,0.00,,,0.00,Wunderground v.1.15,2013-07-13 16:00:00,
2013-07-13 12:10:00,77.2,66.2,30.06,SW,221,2.0,2.0,69,0.00,,,0.00,Wunderground v.1.15,2013-07-13 16:10:00,
2013-07-13 12:15:00,77.7,67.5,30.06,SW,228,2.0,2.0,71,0.00,,,0.00,Wunderground v.1.15,2013-07-13 16:15:00,
2013-07-13 12:24:00,77.6,68.7,30.06,South,182,2.0,2.0,74,0.00,,,0.00,Wunderground v.1.15,2013-07-13 16:24:00,
2013-07-13 12:30:00,77.6,66.6,30.07,SW,219,1.0,1.0,69,0.00,,,0.00,Wunderground v.1.15,2013-07-13 16:30:00,
2013-07-13 12:39:00,77.0,66.9,30.07,West,261,0.0,2.0,71,0.00,,,0.00,Wunderground v.1.15,2013-07-13 16:39:00,
2013-07-13 12:45:00,77.4,66.8,30.06,South,177,1.0,2.0,70,0.00,,,0.00,Wunderground v.1.15,2013-07-13 16:45:00,
2013-07-13 12:54:00,78.1,68.3,30.06,NW,313,1.0,1.0,72,0.00,,,0.00,Wunderground v.1.15,2013-07-13 16:54:00,
2013-07-13 13:00:00,77.9,68.5,30.06,South,170,1.0,1.0,73,0.00,,,0.00,Wunderground v.1.15,2013-07-13 17:00:00,
2013-07-13 13:10:00,77.0,65.6,30.06,WSW,242,3.0,3.0,68,0.00,,,0.00,Wunderground v.1.15,2013-07-13 17:10:00,
2013-07-13 13:15:00,76.8,67.5,30.06,SSW,200,2.0,4.0,73,0.00,,,0.00,Wunderground v.1.15,2013-07-13 17:15:00,
2013-07-13 13:24:00,78.6,68.0,30.06,SSW,202,1.0,4.0,70,0.00,,,0.00,Wunderground v.1.15,2013-07-13 17:24:00,
2013-07-13 13:30:00,78.8,68.2,30.07,WSW,256,2.0,2.0,70,0.00,,,0.00,Wunderground v.1.15,2013-07-13 17:30:00,
2013-07-13 13:40:00,78.5,68.7,30.07,WSW,256,1.0,2.0,72,0.00,,,0.00,Wunderground v.1.15,2013-07-13 17:40:00,
2013-07-13 13:45:00,79.0,66.7,30.06,SE,127,1.0,3.0,66,0.00,,,0.00,Wunderground v.1.15,2013-07-13 17:45:00,
2013-07-13 13:54:00,78.8,66.5,30.06,SSW,207,1.0,2.0,66,0.00,,,0.00,Wunderground v.1.15,2013-07-13 17:54:00,
2013-07-13 14:00:00,79.6,69.8,30.06,WSW,246,1.0,1.0,72,0.00,,,0.00,Wunderground v.1.15,2013-07-13 18:00:00,
2013-07-13 14:05:00,79.9,68.4,30.06,SSE,147,1.0,1.0,68,0.00,,,0.00,Wunderground v.1.15,2013-07-13 18:05:00,
2013-07-13 14:15:00,80.1,67.3,30.06,ESE,121,3.0,3.0,65,0.00,,,0.00,Wunderground v.1.15,2013-07-13 18:15:00,
2013-07-13 14:24:00,79.6,68.1,30.06,West,259,2.0,3.0,68,0.00,,,0.00,Wunderground v.1.15,2013-07-13 18:24:00,
2013-07-13 14:30:00,80.1,66.8,30.06,ESE,121,3.0,3.0,64,0.00,,,0.00,Wunderground v.1.15,2013-07-13 18:30:00,
2013-07-13 14:39:00,80.7,67.8,30.06,West,275,1.0,3.0,65,0.00,,,0.00,Wunderground v.1.15,2013-07-13 18:39:00,
2013-07-13 14:45:00,80.7,63.5,30.05,SSW,207,2.0,5.0,56,0.00,,,0.00,Wunderground v.1.15,2013-07-13 18:45:00,
2013-07-13 14:55:00,81.2,67.4,30.05,SSW,209,1.0,2.0,63,0.00,,,0.00,Wunderground v.1.15,2013-07-13 18:55:00,
2013-07-13 15:00:00,82.2,68.8,30.05,WSW,241,1.0,1.0,64,0.00,,,0.00,Wunderground v.1.15,2013-07-13 19:00:00,
2013-07-13 15:09:00,81.2,66.9,30.05,WSW,244,0.0,0.0,62,0.00,,,0.00,Wunderground v.1.15,2013-07-13 19:09:00,
2013-07-13 15:15:00,81.2,68.3,30.05,South,188,1.0,2.0,65,0.00,,,0.00,Wunderground v.1.15,2013-07-13 19:15:00,
2013-07-13 15:24:00,80.3,67.0,30.05,SW,219,1.0,2.0,64,0.00,,,0.00,Wunderground v.1.15,2013-07-13 19:24:00,
2013-07-13 15:30:00,79.8,68.3,30.05,SW,222,0.0,1.0,68,0.00,,,0.00,Wunderground v.1.15,2013-07-13 19:30:00,
2013-07-13 15:40:00,80.9,66.7,30.05,South,188,1.0,3.0,62,0.00,,,0.00,Wunderground v.1.15,2013-07-13 19:40:00,
2013-07-13 15:45:00,81.4,68.1,30.04,SSW,207,2.0,3.0,64,0.00,,,0.00,Wunderground v.1.15,2013-07-13 19:45:00,
2013-07-13 15:55:00,81.1,68.2,30.04,SW,221,2.0,5.0,65,0.00,,,0.00,Wunderground v.1.15,2013-07-13 19:55:00,
2013-07-13 16:00:00,81.1,66.8,30.04,SSE,165,1.0,1.0,62,0.00,,,0.00,Wunderground v.1.15,2013-07-13 20:00:00,
2013-07-13 16:10:00,81.6,68.2,30.04,ESE,117,2.0,2.0,64,0.00,,,0.00,Wunderground v.1.15,2013-07-13 20:10:00,
2013-07-13 16:15:00,82.0,67.7,30.05,NW,312,1.0,2.0,62,0.00,,,0.00,Wunderground v.1.15,2013-07-13 20:15:00,
2013-07-13 16:25:00,81.1,67.3,30.05,WNW,286,0.0,1.0,63,0.00,,,0.00,Wunderground v.1.15,2013-07-13 20:25:00,
2013-07-13 16:30:00,79.9,66.6,30.04,West,268,1.0,1.0,64,0.00,,,0.00,Wunderground v.1.15,2013-07-13 20:30:00,
2013-07-13 16:40:00,81.1,67.3,30.04,SW,229,0.0,2.0,63,0.00,,,0.00,Wunderground v.1.15,2013-07-13 20:40:00,
2013-07-13 16:45:00,81.6,69.6,30.04,ENE,57,1.0,2.0,67,0.00,,,0.00,Wunderground v.1.15,2013-07-13 20:45:00,
2013-07-13 16:54:00,82.0,65.8,30.04,SSW,198,1.0,3.0,58,0.00,,,0.00,Wunderground v.1.15,2013-07-13 20:54:00,
2013-07-13 17:00:00,82.8,68.4,30.05,SW,222,1.0,2.0,62,0.00,,,0.00,Wunderground v.1.15,2013-07-13 21:00:00,
2013-07-13 17:10:00,81.1,66.8,30.05,WSW,246,1.0,1.0,62,0.00,,,0.00,Wunderground v.1.15,2013-07-13 21:10:00,
2013-07-13 17:15:00,80.7,64.5,30.04,WSW,246,0.0,2.0,58,0.00,,,0.00,Wunderground v.1.15,2013-07-13 21:15:00,
2013-07-13 17:24:00,81.6,66.4,30.04,SW,220,1.0,1.0,60,0.00,,,0.00,Wunderground v.1.15,2013-07-13 21:24:00,
2013-07-13 17:30:00,82.0,69.1,30.04,East,82,1.0,1.0,65,0.00,,,0.00,Wunderground v.1.15,2013-07-13 21:30:00,
2013-07-13 17:39:00,81.2,66.0,30.04,ENE,72,0.0,0.0,60,0.00,,,0.00,Wunderground v.1.15,2013-07-13 21:39:00,
2013-07-13 17:45:00,81.6,67.8,30.04,South,188,0.0,0.0,63,0.00,,,0.00,Wunderground v.1.15,2013-07-13 21:45:00,
2013-07-13 17:55:00,80.1,66.8,30.04,South,190,0.0,1.0,64,0.00,,,0.00,Wunderground v.1.15,2013-07-13 21:55:00,
2013-07-13 18:00:00,79.6,68.1,30.05,South,190,0.0,0.0,68,0.00,,,0.00,Wunderground v.1.15,2013-07-13 22:00:00,
2013-07-13 18:10:00,80.3,67.9,30.05,South,191,0.0,2.0,66,0.00,,,0.00,Wunderground v.1.15,2013-07-13 22:10:00,
2013-07-13 18:15:00,80.3,66.6,30.05,SW,215,1.0,3.0,63,0.00,,,0.00,Wunderground v.1.15,2013-07-13 22:15:00,
2013-07-13 18:25:00,80.7,67.4,30.05,SSW,213,1.0,2.0,64,0.00,,,0.00,Wunderground v.1.15,2013-07-13 22:25:00,
2013-07-13 18:34:00,80.5,66.7,30.05,SSE,159,1.0,1.0,63,0.00,,,0.00,Wunderground v.1.15,2013-07-13 22:34:00,
2013-07-13 18:39:00,79.8,66.1,30.05,South,190,1.0,1.0,63,0.00,,,0.00,Wunderground v.1.15,2013-07-13 22:39:00,
2013-07-13 18:45:00,79.4,66.2,30.06,South,190,0.0,0.0,64,0.00,,,0.00,Wunderground v.1.15,2013-07-13 22:45:00,
2013-07-13 18:54:00,78.6,66.7,30.06,South,190,0.0,0.0,67,0.00,,,0.00,Wunderground v.1.15,2013-07-13 22:54:00,
2013-07-13 19:00:00,78.3,66.9,30.06,SSW,202,0.0,1.0,68,0.00,,,0.00,Wunderground v.1.15,2013-07-13 23:00:00,
2013-07-13 19:10:00,78.3,66.0,30.06,SSW,211,1.0,1.0,66,0.00,,,0.00,Wunderground v.1.15,2013-07-13 23:10:00,
2013-07-13 19:15:00,78.3,66.0,30.06,SSW,211,0.0,1.0,66,0.00,,,0.00,Wunderground v.1.15,2013-07-13 23:15:00,
2013-07-13 19:25:00,78.3,66.4,30.06,SSW,211,0.0,0.0,67,0.00,,,0.00,Wunderground v.1.15,2013-07-13 23:25:00,
2013-07-13 19:30:00,78.1,66.7,30.06,SSW,213,0.0,0.0,68,0.00,,,0.00,Wunderground v.1.15,2013-07-13 23:30:00,
2013-07-13 19:40:00,77.7,66.7,30.06,SSW,213,0.0,0.0,69,0.00,,,0.00,Wunderground v.1.15,2013-07-13 23:40:00,
2013-07-13 19:45:00,77.6,65.8,30.06,SSW,213,0.0,0.0,67,0.00,,,0.00,Wunderground v.1.15,2013-07-13 23:45:00,
2013-07-13 19:55:00,77.2,66.2,30.06,SSW,213,0.0,0.0,69,0.00,,,0.00,Wunderground v.1.15,2013-07-13 23:55:00,
2013-07-13 20:00:00,77.0,66.5,30.06,SSW,213,0.0,0.0,70,0.00,,,0.00,Wunderground v.1.15,2013-07-14 00:00:00,
2013-07-13 20:10:00,76.5,66.4,30.06,SSW,213,0.0,0.0,71,0.00,,,0.00,Wunderground v.1.15,2013-07-14 00:10:00,
2013-07-13 20:15:00,76.1,66.0,30.06,SSW,213,0.0,0.0,71,0.00,,,0.00,Wunderground v.1.15,2013-07-14 00:15:00,
2013-07-13 20:25:00,75.8,66.5,30.06,SSW,213,0.0,0.0,73,0.00,,,0.00,Wunderground v.1.15,2013-07-14 00:25:00,
2013-07-13 20:30:00,75.6,66.3,30.06,SSW,213,0.0,0.0,73,0.00,,,0.00,Wunderground v.1.15,2013-07-14 00:30:00,
2013-07-13 20:39:00,75.1,66.6,30.06,SSW,213,0.0,0.0,75,0.00,,,0.00,Wunderground v.1.15,2013-07-14 00:39:00,
2013-07-13 20:45:00,74.9,66.4,30.06,SSW,213,0.0,0.0,75,0.00,,,0.00,Wunderground v.1.15,2013-07-14 00:45:00,
2013-07-13 20:54:00,74.4,66.3,30.06,SSW,213,0.0,0.0,76,0.00,,,0.00,Wunderground v.1.15,2013-07-14 00:54:00,
2013-07-13 21:00:00,74.2,66.1,30.06,SSW,213,0.0,0.0,76,0.00,,,0.00,Wunderground v.1.15,2013-07-14 01:00:00,
2013-07-13 21:10:00,73.7,66.8,30.06,SSW,213,0.0,0.0,79,0.00,,,0.00,Wunderground v.1.15,2013-07-14 01:10:00,
2013-07-13 21:15:00,73.3,66.8,30.06,SSW,213,0.0,0.0,80,0.00,,,0.00,Wunderground v.1.15,2013-07-14 01:15:00,
2013-07-13 21:25:00,72.7,66.9,30.06,SSW,213,0.0,0.0,82,0.00,,,0.00,Wunderground v.1.15,2013-07-14 01:25:00,
2013-07-13 21:30:00,72.3,66.5,30.07,SSW,213,0.0,0.0,82,0.00,,,0.00,Wunderground v.1.15,2013-07-14 01:30:00,
2013-07-13 21:40:00,72.0,66.6,30.07,SSW,213,0.0,0.0,83,0.00,,,0.00,Wunderground v.1.15,2013-07-14 01:40:00,
2013-07-13 21:45:00,71.8,66.4,30.08,SSW,213,0.0,0.0,83,0.00,,,0.00,Wunderground v.1.15,2013-07-14 01:45:00,
2013-07-13 21:54:00,71.5,66.1,30.08,SSW,213,0.0,0.0,83,0.00,,,0.00,Wunderground v.1.15,2013-07-14 01:54:00,
2013-07-13 22:00:00,71.3,65.9,30.09,SSW,213,0.0,0.0,83,0.00,,,0.00,Wunderground v.1.15,2013-07-14 02:00:00,
2013-07-13 22:10:00,70.9,65.8,30.09,SSW,213,0.0,0.0,84,0.00,,,0.00,Wunderground v.1.15,2013-07-14 02:10:00,
2013-07-13 22:20:00,70.6,65.9,30.09,SSW,213,0.0,0.0,85,0.00,,,0.00,Wunderground v.1.15,2013-07-14 02:20:00,
2013-07-13 22:25:00,70.4,65.7,30.09,SSW,213,0.0,0.0,85,0.00,,,0.00,Wunderground v.1.15,2013-07-14 02:25:00,
2013-07-13 22:30:00,70.3,65.6,30.09,SSW,213,0.0,0.0,85,0.00,,,0.00,Wunderground v.1.15,2013-07-14 02:30:00,
2013-07-13 22:40:00,69.9,65.5,30.09,SSW,213,0.0,0.0,86,0.00,,,0.00,Wunderground v.1.15,2013-07-14 02:40:00,
2013-07-13 22:45:00,69.8,65.8,30.09,SSW,213,0.0,0.0,87,0.00,,,0.00,Wunderground v.1.15,2013-07-14 02:45:00,
2013-07-13 22:55:00,69.4,65.4,30.09,SSW,213,0.0,0.0,87,0.00,,,0.00,Wunderground v.1.15,2013-07-14 02:55:00,
2013-07-13 23:00:00,69.4,65.7,30.10,SSW,213,0.0,0.0,88,0.00,,,0.00,Wunderground v.1.15,2013-07-14 03:00:00,
2013-07-13 23:10:00,69.3,65.6,30.10,SSW,213,0.0,0.0,88,0.00,,,0.00,Wunderground v.1.15,2013-07-14 03:10:00,
2013-07-13 23:15:00,69.1,65.4,30.10,SSW,213,0.0,0.0,88,0.00,,,0.00,Wunderground v.1.15,2013-07-14 03:15:00,
2013-07-13 23:24:00,69.3,66.2,30.10,SSW,213,0.0,0.0,90,0.00,,,0.00,Wunderground v.1.15,2013-07-14 03:24:00,
2013-07-13 23:30:00,69.1,66.0,30.10,SSW,213,0.0,0.0,90,0.00,,,0.00,Wunderground v.1.15,2013-07-14 03:30:00,
2013-07-13 23:39:00,69.1,66.0,30.10,SSW,213,0.0,0.0,90,0.00,,,0.00,Wunderground v.1.15,2013-07-14 03:39:00,
2013-07-13 23:45:00,69.1,66.0,30.10,SSW,213,0.0,0.0,90,0.00,,,0.00,Wunderground v.1.15,2013-07-14 03:45:00,
2013-07-13 23:55:00,69.1,66.0,30.10,SSW,213,0.0,0.0,90,0.00,,,0.00,Wunderground v.1.15,2013-07-14 03:55:00,